Location: An Tulaigh
(53.1928°N, 8.1647°W)
Time: 02:02:41
(UTC+00:00)

Cosmos 1898 Rocket - Pass Details

Date: 15 May 2026
Orbit: 750 x 778 km, 74.0° (Epoch: 8 June)

Event Time Altitude Azimuth Distance (km) Brightness Sun altitude
Rises 22:53:47 0° 334° (NNW) 3,216 8.7 -14.9°
Reaches altitude 10° 22:56:10 10° 337° (NNW) 2,290 7.4 -15.0°
Maximum altitude 23:01:21 70° 61° (ENE) 809 3.6 -15.3°
Enters shadow 23:04:35 23° 141° (SE) 1,561 4.5 -15.5°
